User: anonymous   Login
Location: Grand Mazuras
(45.9128°N, 1.7636°E)
Time: 02:17:18
(UTC+00:00)
Language:

Cosmos 1758 Rocket - Orbit

View from above orbital plane
View from above orbital plane
View from above satellite
View from above satellite

Ground track
Ground track

The orbit data is extracted from the following two-line orbital elements,

1 16792U 86046B   21169.36506846  .00000076  00000-0  62279-5 0  9990
2 16792  82.4834 266.3864 0024859 155.0184 205.2240 14.83287633870491
Epoch (UTC): 18 June 2021 08:45:41
Eccentricity: 0.0024859
inclination: 82.4834°
perigee height: 601 km
apogee height: 636 km
right ascension of ascending node: 266.3864°
argument of perigee: 155.0184°
revolutions per day: 14.83287633
mean anomaly at epoch: 205.2240°
orbit number at epoch: 87049

The dashed part of the orbit path shows where the satellite is in the earth's shadow,  

DLR